Weather Roundup
Issued by NWS Chicago, IL

Home | Current Version | Previous Version | Text Only | Print | Product List | Glossary On
Versions: 1 2 3 4 5 6 7 8 9 10 11 12 13 14 15 16 17 18 19 20 21 22 23 24 25 26 27 28 29 30 31 32 33 34 35 36 37 38 39 40 41 42 43 44 45 46 47 48 49 50
000
NZUS59 KLOT 011010
HRRLOT

CHICAGO AREA WEATHER ROUNDUP
NATIONAL WEATHER SERVICE CHICAGO/ROMEOVILLE IL
400 AM CST SUN FEB 01 2015

NOTE: "FAIR" INDICATES FEW OR NO CLOUDS BELOW 12,000 FEET WITH NO
SIGNIFICANT WEATHER AND/OR OBSTRUCTIONS TO VISIBILITY.

* THESE STATIONS ARE NOT UNDER NWS QUALITY CONTROL. THEY ALSO MAY NOT
  REPORT WEATHER SUCH AS PRECIPITATION OR FOG.

ILZ005-006-012>014-019>023-011100-
NORTHEAST ILLINOIS

CITY           SKY/WX    TMP DP  RH WIND       PRES   REMARKS
OHARE          LGT SNOW  31  29  92 E10       30.04F VSB 3/4 WCI  22
MIDWAY         LGT SNOW  33  30  88 E10       30.04F FOG     WCI  25
AURORA         LGT SNOW  32  29  88 E13       30.02F VSB 3/4 WCI  22
LANSING*       LGT SNOW  32  32 100 E3        30.04F
JOLIET*        LGT SNOW  32  32  99 E3        30.04S VSB 1
WAUKEGAN       LGT SNOW  29  28  96 NE13      30.07F VSB 1   WCI  19
DUPAGE AIRPORT LGT SNOW  31  29  92 NE10      30.02F VSB 1   WCI  22
WHEELING       LGT SNOW  31  29  92 E8        30.07F FOG     WCI  23
KANKAKEE*      LGT SNOW  32  32  99 SE7       30.04F VSB 1   WCI  26
MORRIS*        LGT SNOW  32  32 100 E5        30.02F VSB 1   WCI  28
LEWIS AIRPORT* LGT SNOW  32  32 100 E5        30.04S VSB 3/4 WCI  27
NORTHERLY IS     N/A     31  30  96 E13         N/A  WCI  21
$$

WIZ051-052-058>065-066-070>072-011100-
SOUTHEAST WISCONSIN

CITY           SKY/WX    TMP DP  RH WIND       PRES   REMARKS
MILWAUKEE      LGT SNOW  26  22  84 NE20G29   30.12F FOG     WCI  12
KENOSHA*       LGT SNOW  29  27  92 NE15      30.09F FOG     WCI  18
RACINE*        LGT SNOW  27  24  89 NE20G28   30.12F VSB 1   WCI  13
BURLINGTON     LGT SNOW  26  24  94 NE14      30.09S WCI  14
WAUKESHA       LGT SNOW  23  21  93 NE17G28   30.12S WCI   9
WEST BEND      LGT SNOW  19  16  86 NE12      30.13F WCI   7
$$

INZ001>003-010>013-019-020-011100-
NORTHWEST INDIANA

CITY           SKY/WX    TMP DP  RH WIND       PRES   REMARKS
GARY*          NOT AVBL
MICHIGAN CITY* NOT AVBL
RENSSELAER*    NOT AVBL
VALPARAISO     LGT SNOW  32  31  96 SE7       30.05F FOG     WCI  26
$$

LMZ740>746-011100-
SOUTHERN LAKE MICHIGAN

STATION/POSITION TIME  SKY/WX   TEMP WIND        PRES    VSBY
                                AIR  DIR/SP/G
                 (UTC)          (F)  (DEG/KT/KT) (MB)    (MI)
HARRISON CRIB    1000            30   70/ 17/ 19   N/A
BURNHAM HARBOR   1000            31   70/ 11/ 13   N/A
CALUMET HARBOR   1000            31   60/ 12/ 14   N/A
BURNS HARBOR     NOT AVBL
MICHIGAN CITY    1000            30   60/  7/  8   N/A
$$

ABBREVIATIONS USED IN REMARKS
   TC - TEMPERATURE IN CELSIUS
  WCI - WIND CHILL INDEX
   HX - HEAT INDEX
  VSB - VISIBILITY
$$


USA.gov is the U.S. government's official web portal to all federal, state and local government web resources and services.